GAOFEN-1 04

Last updated on Fri Oct 04 2024 00:02:26 GMT+0000 (Coordinated Universal Time)

1 43262U 18031D 24277.55316710 .00005182 00000+0 74861-3 0 9994 2 43262 97.8099 341.6146 0002043 187.0688 173.0493 14.76616758350953
UTC large
Height (km)
Speed (km/s)
/
Latitude / Longitude
Inclination (degrees)
Orbital Period (minutes)
Azimuth
Elevation
Range (km)
Doppler Factor

Next 0 passes for location: London (51.5072 / 0.1276)

Sorry there are no passes over London.